58P/Jackson-Neujmin (1995)

Japanese version
Home page
Total 6,336 html files since Dec. 4, 1995
Updated on September 29, 2004

---------------------------------------------------------------------

* Profile

* Orbital Elements

   The following improved orbital elements, by Kenji Muraoka, are from
  321 observations 1970 to 1996, including 9 Planets and 5 minor planets
  perturbations and non-gravitational effect of style II.  
   The mean residual is  +/- 0.77 arc seconds.

      Epoch  =  1995 Oct. 10.0  TT       JDT = 2450000.5
          T  =  1995 Oct.  6.60785       +/- 0.00072 (m.e.) TT
       Peri. =  200.35227                +/- 0.00034
       Node  =  160.71768                +/- 0.00003   (2000.0)
       Incl. =   13.47861                +/- 0.00001
          q  =    1.3811700              +/- 0.0000006 AU
          e  =    0.6614254              +/- 0.0000003
          a  =    4.0793669              +/- 0.0000009 AU
          n  =    0.11962306             +/- 0.00000004
          P  =    8.239                  +/- 0.0000027  years
         A1  =   +0.332                  +/- 0.026
         A2  =   -0.01516                +/- 0.00015

* Finding Charts

* 1995 June 2 - 1996 May 27

* Magnitudes Graph

        m1 = 7.5 + 5 log d + 30 log r(t - 80)

---------------------------------------------------------------------

The orbital elements are calculated by Kenji Muraoka.
The charts are made with StellaNavigator Ver.2.0 for Windows (AstroArts / ASCII).
The magnitudes graphs are made with Comet for Windows.

---------------------------------------------------------------------

Copyright(C) 1995-2008 Seiichi Yoshida (comet@aerith.net). All rights reserved.